Вернуться в каталог

STARLINK-1362

АктивенСвязьVLEO
NORAD 45538·PAYLOAD·🇺🇸 United States

Запущен Apr 22, 2020 с Cape Canaveral Space Force Station

Loading…

Ближайшие Пролёты (ближайшие 24 часа)

TLE

СвежийSource: CelesTrak SupGP

Эпоха: Sep 15, 2026, 02:37 UTC

1 45538C 20025H   26258.10951389  .00046892  00000+0  95359-3 0  2583
2 45538  53.1517 291.0041 0001958  78.0615 229.1418 15.45682287    12

Отслеживайте STARLINK-1362 в реальном времени с AllMySat

Download on the App Store